Location: Newark
(49.3000°N, 9.4667°E)
Time: 22:22:26
(UTC+00:00)

S-56A Canister/Altair - Pass Details

Date: 27 May 2019
Orbit: 633 x 2499 km, 38.9° (Epoch: 25 June)

Event Time Altitude Azimuth Distance (km) Brightness Sun altitude
Exits shadow 02:13:39 - 248° (WSW) 2,939 10.0 -9.5°
Reaches altitude 10° 02:14:07 10° 246° (WSW) 2,798 9.8 -9.5°
Maximum altitude 02:20:27 40° 179° (S) 1,837 9.1 -8.8°
Drops below altitude 10° 02:29:42 10° 115° (ESE) 4,089 11.5 -7.8°
Sets 02:33:54 0° 109° (ESE) 5,380 12.2 -7.3°
